Time,TemperatureF,DewpointF,PressureIn,WindDirection,WindDirectionDegrees,WindSpeedMPH,WindSpeedGustMPH,Humidity,HourlyPrecipIn,Conditions,Clouds,dailyrainin,SoftwareType,DateUTC
2013-05-24 00:03:00,63.0,60.0,-100.00,ESE,115,13.0,21.0,89,-99.99,,,-99.99,,2013-05-24 04:03:00,
2013-05-24 00:13:00,63.0,60.0,-100.00,ESE,110,14.0,19.0,89,-99.99,,,-99.99,,2013-05-24 04:13:00,
2013-05-24 00:23:00,63.0,60.0,-100.00,ESE,110,10.0,17.0,89,-99.99,,,-99.99,,2013-05-24 04:23:00,
2013-05-24 00:33:00,63.0,60.0,-100.00,ESE,110,12.0,20.0,89,-99.99,,,-99.99,,2013-05-24 04:33:00,
2013-05-24 00:42:00,63.0,60.0,-100.00,ESE,110,12.0,20.0,89,-99.99,,,-99.99,,2013-05-24 04:42:00,
2013-05-24 00:53:00,63.0,60.0,-100.00,ESE,105,10.0,19.0,89,-99.99,,,-99.99,,2013-05-24 04:53:00,
2013-05-24 01:02:00,63.0,60.0,-100.00,ESE,105,10.0,19.0,89,-99.99,,,-99.99,,2013-05-24 05:02:00,
2013-05-24 01:12:00,64.0,60.0,-100.00,ESE,110,12.0,20.0,89,-99.99,,,-99.99,,2013-05-24 05:12:00,
2013-05-24 01:22:00,64.0,60.0,-100.00,ESE,110,12.0,20.0,89,-99.99,,,-99.99,,2013-05-24 05:22:00,
2013-05-24 01:32:00,64.0,61.0,-100.00,East,100,14.0,21.0,90,-99.99,,,-99.99,,2013-05-24 05:32:00,
2013-05-24 01:42:00,64.0,61.0,-100.00,East,100,14.0,21.0,90,-99.99,,,-99.99,,2013-05-24 05:42:00,
2013-05-24 01:52:00,64.0,61.0,-100.00,East,95,15.0,20.0,90,-99.99,,,-99.99,,2013-05-24 05:52:00,
2013-05-24 02:02:00,64.0,61.0,-100.00,East,95,15.0,20.0,90,-99.99,,,-99.99,,2013-05-24 06:02:00,
2013-05-24 02:12:00,63.0,60.0,-100.00,East,90,12.0,18.0,90,-99.99,,,-99.99,,2013-05-24 06:12:00,
2013-05-24 02:21:00,63.0,60.0,-100.00,East,90,10.0,22.0,90,-99.99,,,-99.99,,2013-05-24 06:21:00,
2013-05-24 02:32:00,63.0,60.0,-100.00,East,90,10.0,22.0,90,-99.99,,,-99.99,,2013-05-24 06:32:00,
2013-05-24 02:42:00,64.0,61.0,-100.00,East,90,12.0,17.0,90,-99.99,,,-99.99,,2013-05-24 06:42:00,
2013-05-24 02:52:00,63.0,61.0,-100.00,East,90,6.0,18.0,90,-99.99,,,-99.99,,2013-05-24 06:52:00,
2013-05-24 03:02:00,63.0,61.0,-100.00,East,90,6.0,18.0,90,-99.99,,,-99.99,,2013-05-24 07:02:00,
2013-05-24 03:11:00,64.0,61.0,-100.00,NE,45,4.0,15.0,90,-99.99,,,-99.99,,2013-05-24 07:11:00,
2013-05-24 03:22:00,65.0,62.0,-100.00,East,80,4.0,15.0,90,-99.99,,,-99.99,,2013-05-24 07:22:00,
2013-05-24 03:32:00,65.0,62.0,-100.00,East,80,4.0,15.0,90,-99.99,,,-99.99,,2013-05-24 07:32:00,
2013-05-24 03:42:00,64.0,61.0,-100.00,East,80,9.0,11.0,90,-99.99,,,-99.99,,2013-05-24 07:42:00,
2013-05-24 03:52:00,64.0,61.0,-100.00,ENE,70,6.0,10.0,90,-99.99,,,-99.99,,2013-05-24 07:52:00,
2013-05-24 04:02:00,64.0,61.0,-100.00,ENE,70,6.0,10.0,90,-99.99,,,-99.99,,2013-05-24 08:02:00,
2013-05-24 04:11:00,64.0,61.0,-100.00,ENE,75,2.0,6.0,90,-99.99,,,-99.99,,2013-05-24 08:11:00,
2013-05-24 04:22:00,64.0,61.0,-100.00,ENE,70,0.0,0.0,90,-99.99,,,-99.99,,2013-05-24 08:22:00,
2013-05-24 04:33:00,64.0,61.0,-100.00,ENE,75,0.0,0.0,90,-99.99,,,-99.99,,2013-05-24 08:33:00,
2013-05-24 04:42:00,64.0,61.0,-100.00,ENE,75,0.0,0.0,90,-99.99,,,-99.99,,2013-05-24 08:42:00,
2013-05-24 04:52:00,64.0,61.0,-100.00,ENE,75,2.0,2.0,90,-99.99,,,-99.99,,2013-05-24 08:52:00,
2013-05-24 05:02:00,64.0,61.0,-100.00,ENE,75,2.0,2.0,90,-99.99,,,-99.99,,2013-05-24 09:02:00,
2013-05-24 05:11:00,64.0,61.0,-100.00,NE,50,3.0,3.0,90,-99.99,,,-99.99,,2013-05-24 09:11:00,
2013-05-24 05:22:00,64.0,61.0,-100.00,NE,45,5.0,7.0,90,-99.99,,,-99.99,,2013-05-24 09:22:00,
2013-05-24 05:33:00,64.0,61.0,-100.00,NE,45,0.0,3.0,90,-99.99,,,-99.99,,2013-05-24 09:33:00,
2013-05-24 05:42:00,64.0,61.0,-100.00,NE,45,0.0,3.0,90,-99.99,,,-99.99,,2013-05-24 09:42:00,
2013-05-24 05:52:00,64.0,61.0,-100.00,NNE,30,3.0,4.0,90,-99.99,,,-99.99,,2013-05-24 09:52:00,
2013-05-24 06:03:00,64.0,61.0,-100.00,NNE,30,3.0,4.0,90,-99.99,,,-99.99,,2013-05-24 10:03:00,
2013-05-24 06:12:00,64.0,61.0,-100.00,NNE,30,2.0,7.0,90,-99.99,,,-99.99,,2013-05-24 10:12:00,
2013-05-24 06:23:00,64.0,61.0,-100.00,NNE,15,2.0,4.0,90,-99.99,,,-99.99,,2013-05-24 10:23:00,
2013-05-24 06:33:00,64.0,61.0,-100.00,NNE,15,3.0,4.0,90,-99.99,,,-99.99,,2013-05-24 10:33:00,
2013-05-24 06:42:00,64.0,61.0,-100.00,NNE,15,3.0,4.0,90,-99.99,,,-99.99,,2013-05-24 10:42:00,
2013-05-24 06:52:00,64.0,61.0,-100.00,NNE,25,2.0,4.0,90,-99.99,,,-99.99,,2013-05-24 10:52:00,
2013-05-24 07:02:00,64.0,61.0,-100.00,NNE,25,2.0,4.0,90,-99.99,,,-99.99,,2013-05-24 11:02:00,
2013-05-24 07:12:00,64.0,61.0,-100.00,NNE,20,2.0,4.0,90,-99.99,,,-99.99,,2013-05-24 11:12:00,
2013-05-24 07:22:00,64.0,61.0,-100.00,NE,40,3.0,4.0,90,-99.99,,,-99.99,,2013-05-24 11:22:00,
2013-05-24 07:32:00,64.0,61.0,-100.00,NE,40,2.0,4.0,90,-99.99,,,-99.99,,2013-05-24 11:32:00,
2013-05-24 07:42:00,64.0,61.0,-100.00,NE,40,2.0,4.0,90,-99.99,,,-99.99,,2013-05-24 11:42:00,
2013-05-24 07:52:00,64.0,61.0,-100.00,NE,50,4.0,7.0,90,-99.99,,,-99.99,,2013-05-24 11:52:00,
2013-05-24 08:02:00,64.0,61.0,-100.00,NE,50,4.0,7.0,90,-99.99,,,-99.99,,2013-05-24 12:02:00,
2013-05-24 08:12:00,64.0,61.0,-100.00,NE,55,3.0,6.0,90,-99.99,,,-99.99,,2013-05-24 12:12:00,
2013-05-24 08:22:00,64.0,61.0,-100.00,ENE,60,3.0,6.0,90,-99.99,,,-99.99,,2013-05-24 12:22:00,
2013-05-24 08:33:00,65.0,62.0,-100.00,NE,45,4.0,9.0,90,-99.99,,,-99.99,,2013-05-24 12:33:00,
2013-05-24 08:42:00,65.0,62.0,-100.00,NE,45,4.0,9.0,90,-99.99,,,-99.99,,2013-05-24 12:42:00,
2013-05-24 08:52:00,67.0,64.0,-100.00,NE,50,7.0,14.0,90,-99.99,,,-99.99,,2013-05-24 12:52:00,
2013-05-24 09:02:00,67.0,64.0,-100.00,NE,50,7.0,14.0,90,-99.99,,,-99.99,,2013-05-24 13:02:00,
2013-05-24 09:11:00,67.0,64.0,-100.00,ENE,65,10.0,15.0,90,-99.99,,,-99.99,,2013-05-24 13:11:00,
2013-05-24 09:22:00,68.0,64.0,-100.00,ENE,70,9.0,15.0,89,-99.99,,,-99.99,,2013-05-24 13:22:00,
2013-05-24 09:32:00,68.0,64.0,-100.00,ENE,70,9.0,15.0,89,-99.99,,,-99.99,,2013-05-24 13:32:00,
2013-05-24 09:42:00,68.0,63.0,-100.00,ENE,65,9.0,18.0,85,-99.99,,,-99.99,,2013-05-24 13:42:00,
2013-05-24 09:52:00,68.0,63.0,-100.00,East,85,10.0,18.0,83,-99.99,,,-99.99,,2013-05-24 13:52:00,
2013-05-24 10:02:00,68.0,63.0,-100.00,East,85,10.0,18.0,83,-99.99,,,-99.99,,2013-05-24 14:02:00,
2013-05-24 10:11:00,68.0,62.0,-100.00,NE,55,9.0,15.0,82,-99.99,,,-99.99,,2013-05-24 14:11:00,
2013-05-24 10:22:00,68.0,62.0,-100.00,ENE,60,10.0,18.0,82,-99.99,,,-99.99,,2013-05-24 14:22:00,
2013-05-24 10:32:00,68.0,62.0,-100.00,ENE,65,12.0,18.0,82,-99.99,,,-99.99,,2013-05-24 14:32:00,
2013-05-24 10:42:00,68.0,62.0,-100.00,ENE,65,12.0,18.0,82,-99.99,,,-99.99,,2013-05-24 14:42:00,
2013-05-24 10:52:00,68.0,61.0,-100.00,ENE,70,12.0,21.0,78,-99.99,,,-99.99,,2013-05-24 14:52:00,
2013-05-24 11:02:00,68.0,61.0,-100.00,ENE,70,12.0,21.0,78,-99.99,,,-99.99,,2013-05-24 15:02:00,
2013-05-24 11:11:00,68.0,59.0,-100.00,East,90,15.0,23.0,74,-99.99,,,-99.99,,2013-05-24 15:11:00,
2013-05-24 11:22:00,67.0,60.0,-100.00,East,80,15.0,25.0,79,-99.99,,,-99.99,,2013-05-24 15:22:00,
2013-05-24 11:33:00,66.0,60.0,-100.00,East,90,19.0,29.0,81,-99.99,,,-99.99,,2013-05-24 15:33:00,
2013-05-24 11:43:00,66.0,60.0,-100.00,East,90,19.0,29.0,81,-99.99,,,-99.99,,2013-05-24 15:43:00,
2013-05-24 11:52:00,65.0,59.0,-100.00,ENE,75,15.0,31.0,79,-99.99,,,-99.99,,2013-05-24 15:52:00,
2013-05-24 12:03:00,65.0,59.0,-100.00,ENE,75,15.0,31.0,79,-99.99,,,-99.99,,2013-05-24 16:03:00,
2013-05-24 12:13:00,65.0,57.0,-100.00,ENE,75,18.0,34.0,75,-99.99,,,-99.99,,2013-05-24 16:13:00,
2013-05-24 12:22:00,65.0,56.0,-100.00,East,85,26.0,34.0,73,-99.99,,,-99.99,,2013-05-24 16:22:00,
2013-05-24 12:32:00,65.0,54.0,-100.00,East,90,24.0,35.0,67,-99.99,,,-99.99,,2013-05-24 16:32:00,
2013-05-24 12:42:00,65.0,54.0,-100.00,East,90,24.0,35.0,67,-99.99,,,-99.99,,2013-05-24 16:42:00,
2013-05-24 12:52:00,65.0,53.0,-100.00,East,80,21.0,36.0,65,-99.99,,,-99.99,,2013-05-24 16:52:00,
2013-05-24 13:02:00,65.0,53.0,-100.00,East,80,21.0,36.0,65,-99.99,,,-99.99,,2013-05-24 17:02:00,
2013-05-24 13:12:00,63.0,52.0,-100.00,East,90,27.0,38.0,67,-99.99,,,-99.99,,2013-05-24 17:12:00,
2013-05-24 13:22:00,63.0,52.0,-100.00,East,95,26.0,33.0,69,-99.99,,,-99.99,,2013-05-24 17:22:00,
2013-05-24 13:32:00,63.0,52.0,-100.00,East,95,26.0,33.0,69,-99.99,,,-99.99,,2013-05-24 17:32:00,
2013-05-24 13:42:00,63.0,52.0,-100.00,East,95,22.0,32.0,69,-99.99,,,-99.99,,2013-05-24 17:42:00,
2013-05-24 13:52:00,62.0,52.0,-100.00,East,95,26.0,34.0,70,-99.99,,,-99.99,,2013-05-24 17:52:00,
2013-05-24 14:01:00,62.0,52.0,-100.00,East,95,26.0,34.0,70,-99.99,,,-99.99,,2013-05-24 18:01:00,
2013-05-24 14:12:00,60.0,50.0,-100.00,East,90,24.0,33.0,71,-99.99,,,-99.99,,2013-05-24 18:12:00,
2013-05-24 14:22:00,60.0,50.0,-100.00,East,90,24.0,33.0,69,-99.99,,,-99.99,,2013-05-24 18:22:00,
2013-05-24 14:32:00,60.0,50.0,-100.00,East,90,24.0,33.0,69,-99.99,,,-99.99,,2013-05-24 18:32:00,
2013-05-24 14:42:00,60.0,49.0,-100.00,ENE,75,24.0,32.0,69,-99.99,,,-99.99,,2013-05-24 18:42:00,
2013-05-24 14:52:00,58.0,49.0,-100.00,East,80,18.0,32.0,72,-99.99,,,-99.99,,2013-05-24 18:52:00,
2013-05-24 15:02:00,58.0,49.0,-100.00,East,80,18.0,32.0,72,-99.99,,,-99.99,,2013-05-24 19:02:00,
2013-05-24 15:11:00,57.0,49.0,-100.00,ENE,75,22.0,34.0,74,-99.99,,,-99.99,,2013-05-24 19:11:00,
2013-05-24 15:21:00,56.0,48.0,-100.00,East,80,20.0,34.0,74,-99.99,,,-99.99,,2013-05-24 19:21:00,
2013-05-24 15:32:00,57.0,48.0,-100.00,East,85,22.0,37.0,74,-99.99,,,-99.99,,2013-05-24 19:32:00,
2013-05-24 15:42:00,57.0,48.0,-100.00,East,85,22.0,37.0,74,-99.99,,,-99.99,,2013-05-24 19:42:00,
2013-05-24 15:52:00,55.0,48.0,-100.00,East,90,23.0,36.0,78,-99.99,,,-99.99,,2013-05-24 19:52:00,
2013-05-24 16:02:00,55.0,48.0,-100.00,East,90,23.0,36.0,78,-99.99,,,-99.99,,2013-05-24 20:02:00,
2013-05-24 16:12:00,54.0,48.0,-100.00,East,90,22.0,32.0,80,-99.99,,,-99.99,,2013-05-24 20:12:00,
2013-05-24 16:22:00,54.0,49.0,-100.00,East,95,22.0,30.0,81,-99.99,,,-99.99,,2013-05-24 20:22:00,
2013-05-24 16:32:00,54.0,47.0,-100.00,East,90,25.0,35.0,77,-99.99,,,-99.99,,2013-05-24 20:32:00,
2013-05-24 16:42:00,54.0,47.0,-100.00,East,90,25.0,35.0,77,-99.99,,,-99.99,,2013-05-24 20:42:00,
2013-05-24 16:52:00,54.0,46.0,-100.00,East,90,26.0,36.0,74,-99.99,,,-99.99,,2013-05-24 20:52:00,
2013-05-24 17:01:00,54.0,46.0,-100.00,East,90,26.0,36.0,74,-99.99,,,-99.99,,2013-05-24 21:01:00,
2013-05-24 17:12:00,54.0,45.0,-100.00,East,95,31.0,36.0,73,-99.99,,,-99.99,,2013-05-24 21:12:00,
2013-05-24 17:22:00,54.0,46.0,-100.00,East,95,25.0,31.0,73,-99.99,,,-99.99,,2013-05-24 21:22:00,
2013-05-24 17:33:00,54.0,45.0,-100.00,East,95,22.0,30.0,73,-99.99,,,-99.99,,2013-05-24 21:33:00,
2013-05-24 17:43:00,54.0,45.0,-100.00,East,95,22.0,30.0,73,-99.99,,,-99.99,,2013-05-24 21:43:00,
2013-05-24 17:53:00,54.0,45.0,-100.00,East,95,21.0,29.0,73,-99.99,,,-99.99,,2013-05-24 21:53:00,
2013-05-24 18:03:00,54.0,45.0,-100.00,East,95,21.0,29.0,73,-99.99,,,-99.99,,2013-05-24 22:03:00,
2013-05-24 18:12:00,54.0,45.0,-100.00,East,95,19.0,28.0,71,-99.99,,,-99.99,,2013-05-24 22:12:00,
2013-05-24 18:22:00,54.0,44.0,-100.00,East,90,22.0,29.0,69,-99.99,,,-99.99,,2013-05-24 22:22:00,
2013-05-24 18:33:00,54.0,42.0,-100.00,East,85,19.0,33.0,65,-99.99,,,-99.99,,2013-05-24 22:33:00,
2013-05-24 18:42:00,54.0,42.0,-100.00,East,85,19.0,33.0,65,-99.99,,,-99.99,,2013-05-24 22:42:00,
2013-05-24 18:52:00,54.0,41.0,-100.00,East,85,26.0,37.0,61,-99.99,,,-99.99,,2013-05-24 22:52:00,
2013-05-24 19:02:00,54.0,41.0,-100.00,East,85,26.0,37.0,61,-99.99,,,-99.99,,2013-05-24 23:02:00,
2013-05-24 19:11:00,55.0,41.0,-100.00,East,90,24.0,40.0,58,-99.99,,,-99.99,,2013-05-24 23:11:00,
2013-05-24 19:22:00,55.0,40.0,-100.00,East,90,25.0,33.0,57,-99.99,,,-99.99,,2013-05-24 23:22:00,
2013-05-24 19:32:00,55.0,40.0,-100.00,East,90,25.0,33.0,57,-99.99,,,-99.99,,2013-05-24 23:32:00,
2013-05-24 19:42:00,55.0,40.0,-100.00,East,80,24.0,28.0,58,-99.99,,,-99.99,,2013-05-24 23:42:00,
2013-05-24 19:52:00,55.0,40.0,-100.00,East,85,27.0,33.0,57,-99.99,,,-99.99,,2013-05-24 23:52:00,
2013-05-24 20:01:00,55.0,40.0,-100.00,East,85,27.0,33.0,57,-99.99,,,-99.99,,2013-05-25 00:01:00,
2013-05-24 20:12:00,55.0,38.0,-100.00,ENE,70,31.0,37.0,53,-99.99,,,-99.99,,2013-05-25 00:12:00,
2013-05-24 20:22:00,55.0,38.0,-100.00,ENE,65,26.0,38.0,53,-99.99,,,-99.99,,2013-05-25 00:22:00,
2013-05-24 20:32:00,55.0,38.0,-100.00,ENE,65,26.0,38.0,53,-99.99,,,-99.99,,2013-05-25 00:32:00,
2013-05-24 20:42:00,55.0,37.0,-100.00,NE,50,30.0,42.0,50,-99.99,,,-99.99,,2013-05-25 00:42:00,
2013-05-24 20:52:00,55.0,37.0,-100.00,NE,50,30.0,42.0,50,-99.99,,,-99.99,,2013-05-25 00:52:00,
2013-05-24 21:11:00,55.0,37.0,-100.00,NNE,30,29.0,41.0,50,-99.99,,,-99.99,,2013-05-25 01:11:00,
2013-05-24 21:22:00,55.0,37.0,-100.00,NNE,30,28.0,38.0,50,-99.99,,,-99.99,,2013-05-25 01:22:00,
2013-05-24 21:32:00,55.0,38.0,-100.00,NNE,25,30.0,36.0,52,-99.99,,,-99.99,,2013-05-25 01:32:00,
2013-05-24 21:42:00,55.0,38.0,-100.00,NNE,25,30.0,36.0,52,-99.99,,,-99.99,,2013-05-25 01:42:00,
2013-05-24 21:52:00,55.0,37.0,-100.00,NNE,20,33.0,41.0,51,-99.99,,,-99.99,,2013-05-25 01:52:00,
2013-05-24 22:02:00,55.0,37.0,-100.00,NNE,20,33.0,41.0,51,-99.99,,,-99.99,,2013-05-25 02:02:00,
2013-05-24 22:12:00,55.0,37.0,-100.00,NNE,15,28.0,41.0,50,-99.99,,,-99.99,,2013-05-25 02:12:00,
2013-05-24 22:22:00,54.0,35.0,-100.00,NNE,15,32.0,39.0,49,-99.99,,,-99.99,,2013-05-25 02:22:00,
2013-05-24 22:32:00,54.0,35.0,-100.00,North,10,34.0,41.0,49,-99.99,,,-99.99,,2013-05-25 02:32:00,
2013-05-24 22:42:00,54.0,35.0,-100.00,North,10,34.0,41.0,49,-99.99,,,-99.99,,2013-05-25 02:42:00,
2013-05-24 22:51:00,54.0,34.0,-100.00,North,10,36.0,43.0,48,-99.99,,,-99.99,,2013-05-25 02:51:00,
2013-05-24 23:02:00,54.0,34.0,-100.00,North,10,36.0,43.0,48,-99.99,,,-99.99,,2013-05-25 03:02:00,
2013-05-24 23:12:00,54.0,34.0,-100.00,North,10,36.0,46.0,48,-99.99,,,-99.99,,2013-05-25 03:12:00,
2013-05-24 23:22:00,53.0,35.0,-100.00,North,10,26.0,38.0,50,-99.99,,,-99.99,,2013-05-25 03:22:00,
2013-05-24 23:33:00,53.0,35.0,-100.00,North,10,26.0,38.0,50,-99.99,,,-99.99,,2013-05-25 03:33:00,
2013-05-24 23:43:00,52.0,36.0,-100.00,North,10,33.0,39.0,54,-99.99,,,-99.99,,2013-05-25 03:43:00,
2013-05-24 23:53:00,52.0,36.0,-100.00,North,10,33.0,39.0,54,-99.99,,,-99.99,,2013-05-25 03:53:00,